Weather History for Sturgeon Bay, WI

Change the Weather History Date:

Friday, July 13, 2012

  Actual Average Record
Temperature  
Mean Temperature 76 °F -  
Max Temperature 87 °F 78 °F 105 °F (1936)
Min Temperature 66 °F 57 °F 39 °F (1926)
Cooling Degree Days 11    
Growing Degree Days 26 (Base 50)    
Moisture  
Dew Point 62 °F    
Average Humidity 64    
Maximum Humidity 83    
Minimum Humidity 42    
Precipitation  
Precipitation 0.00 in - - ()
Sea Level Pressure  
Sea Level Pressure 30.05 in    
Wind  
Wind Speed 7 mph (SSE)    
Max Wind Speed 16 mph    
Max Gust Speed 21 mph    
Visibility 10 miles    
Events      
Averages and records for this station are not official NWS values.
T = Trace of Precipitation, MM = Missing Value Source: NWS Daily Summary

Daily Weather History Graph

Daily Weather History Graph

Search for Another Location

Airport:

Trip Planner

Search our weather history database for the weather conditions in past years. The results will help you decide how hot, cold, wet, or windy it might be!

Date:

Astronomy

Jul. 13, 2012 Rise Set
Actual Time 5:16 AM CDT 8:34 PM CDT
Civil Twilight 4:40 AM CDT 9:09 PM CDT
Nautical Twilight 3:53 AM CDT 9:56 PM CDT
Astronomical Twilight 2:55 AM CDT 10:54 PM CDT
Moon 12:56 AM CDT (7/13) 4:01 PM CDT (7/13)
Length of Visible Light 16h 29m
Length of Day
15h 17m
Waning Crescent, 26% of the Moon is Illuminated
Jul 13
Waning Crescent
Jul 18
New
Jul 26
First Quarter
Aug 1
Full
Aug 9
Last Quarter

Hourly Weather History & Observations

Time (CDT) Temp. Heat Index Dew Point Humidity Pressure Visibility Wind Dir Wind Speed Gust Speed Precip Events Conditions
12:15 AM 69.8 °F - 53.6 °F 56% 30.08 in 10.0 mi South 5.8 mph - N/A   Clear
12:35 AM 69.8 °F - 51.8 °F 53% 30.08 in 10.0 mi South 5.8 mph - N/A   Clear
12:55 AM 69.8 °F - 53.6 °F 56% 30.08 in 10.0 mi South 4.6 mph - N/A   Clear
1:15 AM 69.8 °F - 53.6 °F 56% 30.08 in 10.0 mi South 4.6 mph - N/A   Clear
1:35 AM 68.0 °F - 53.6 °F 60% 30.09 in 10.0 mi SSE 6.9 mph - N/A   Clear
1:55 AM 66.2 °F - 53.6 °F 64% 30.08 in 10.0 mi SSE 3.5 mph - N/A   Clear
2:15 AM 66.2 °F - 57.2 °F 73% 30.09 in 10.0 mi SSE 3.5 mph - N/A   Clear
2:35 AM 66.2 °F - 60.8 °F 83% 30.08 in 10.0 mi South 4.6 mph - N/A   Clear
2:55 AM 66.2 °F - 60.8 °F 83% 30.08 in 10.0 mi SSE 5.8 mph - N/A   Clear
3:15 AM 66.2 °F - 60.8 °F 83% 30.07 in 10.0 mi SSE 6.9 mph - N/A   Clear
3:35 AM 68.0 °F - 60.8 °F 78% 30.07 in 10.0 mi SSE 6.9 mph - N/A   Clear
3:55 AM 68.0 °F - 60.8 °F 78% 30.07 in 10.0 mi SE 5.8 mph - N/A   Clear
4:15 AM 66.2 °F - 60.8 °F 83% 30.07 in 10.0 mi SE 5.8 mph - N/A   Clear
4:35 AM 66.2 °F - 60.8 °F 83% 30.07 in 10.0 mi SSE 5.8 mph - N/A   Clear
4:55 AM 66.2 °F - 60.8 °F 83% 30.07 in 10.0 mi SSE 5.8 mph - N/A   Clear
5:15 AM 66.2 °F - 60.8 °F 83% 30.07 in 10.0 mi SSE 6.9 mph - N/A   Clear
5:35 AM 66.2 °F - 60.8 °F 83% 30.07 in 10.0 mi SSE 8.1 mph - N/A   Partly Cloudy
5:55 AM 69.8 °F - 60.8 °F 73% 30.07 in 10.0 mi SSE 6.9 mph - N/A   Partly Cloudy
6:15 AM 69.8 °F - 60.8 °F 73% 30.08 in 10.0 mi South 4.6 mph - N/A   Scattered Clouds
6:35 AM 69.8 °F - 60.8 °F 73% 30.08 in 10.0 mi SSE 4.6 mph - N/A   Scattered Clouds
6:55 AM 71.6 °F - 62.6 °F 73% 30.08 in 10.0 mi SSE 4.6 mph - N/A   Partly Cloudy
7:15 AM 73.4 °F - 62.6 °F 69% 30.07 in 10.0 mi SSE 6.9 mph - N/A   Scattered Clouds
7:35 AM 71.6 °F - 62.6 °F 73% 30.07 in 10.0 mi SSE 6.9 mph - N/A   Mostly Cloudy
7:55 AM 71.6 °F - 62.6 °F 73% 30.07 in 10.0 mi SE 5.8 mph - N/A   Partly Cloudy
8:15 AM 75.2 °F - 64.4 °F 69% 30.08 in 10.0 mi South 10.4 mph - N/A   Clear
8:35 AM 77.0 °F - 64.4 °F 65% 30.08 in 10.0 mi South 9.2 mph - N/A   Partly Cloudy
8:55 AM 77.0 °F - 62.6 °F 61% 30.08 in 10.0 mi South 10.4 mph - N/A   Scattered Clouds
9:15 AM 78.8 °F - 64.4 °F 61% 30.09 in 10.0 mi SSE 5.8 mph - N/A   Partly Cloudy
9:35 AM 80.6 °F 81.8 °F 62.6 °F 54% 30.08 in 10.0 mi South 9.2 mph - N/A   Clear
9:55 AM 80.6 °F 82.3 °F 64.4 °F 58% 30.08 in 10.0 mi SSE 5.8 mph - N/A   Clear
10:15 AM 82.4 °F 83.9 °F 64.4 °F 54% 30.08 in 10.0 mi South 8.1 mph - N/A   Clear
10:55 AM 84.2 °F 85.6 °F 64.4 °F 51% 30.08 in 10.0 mi SSE 8.1 mph - N/A   Clear
11:15 AM 82.4 °F 85.4 °F 68.0 °F 62% 30.08 in 10.0 mi SE 9.2 mph - N/A   Clear
11:35 AM 84.2 °F 86.6 °F 66.2 °F 55% 30.08 in 10.0 mi SSE 10.4 mph - N/A   Clear
11:55 AM 84.2 °F 86.6 °F 66.2 °F 55% 30.07 in 10.0 mi SE 8.1 mph 16.1 mph N/A   Clear
12:15 PM 84.2 °F 85.6 °F 64.4 °F 51% 30.07 in 10.0 mi SSE 11.5 mph - N/A   Partly Cloudy
12:35 PM 84.2 °F 85.6 °F 64.4 °F 51% 30.07 in 10.0 mi SE 8.1 mph - N/A   Partly Cloudy
12:55 PM 86.0 °F 86.6 °F 62.6 °F 45% 30.06 in 10.0 mi SSE 13.8 mph - N/A   Clear
1:15 PM 86.0 °F 86.6 °F 62.6 °F 45% 30.06 in 10.0 mi SSE 13.8 mph 20.7 mph N/A   Clear
1:35 PM 84.2 °F 85.0 °F 62.6 °F 48% 30.05 in 10.0 mi SE 12.7 mph - N/A   Clear
1:55 PM 86.0 °F 86.6 °F 62.6 °F 45% 30.05 in 10.0 mi SSE 9.2 mph 18.4 mph N/A   Clear
2:15 PM 86.0 °F 86.1 °F 60.8 °F 43% 30.05 in 10.0 mi South 15.0 mph 18.4 mph N/A   Clear
2:35 PM 84.2 °F 84.4 °F 60.8 °F 45% 30.05 in 10.0 mi South 12.7 mph 17.3 mph N/A   Partly Cloudy
2:55 PM 82.4 °F 82.9 °F 60.8 °F 48% 30.05 in 10.0 mi South 9.2 mph - N/A   Partly Cloudy
3:15 PM 82.4 °F 83.4 °F 62.6 °F 51% 30.04 in 10.0 mi SSE 12.7 mph - N/A   Clear
3:35 PM 82.4 °F 83.4 °F 62.6 °F 51% 30.03 in 10.0 mi South 13.8 mph 18.4 mph N/A   Clear
3:55 PM 84.2 °F 84.4 °F 60.8 °F 45% 30.02 in 10.0 mi SSE 11.5 mph 18.4 mph N/A   Clear
4:15 PM 84.2 °F 84.4 °F 60.8 °F 45% 30.02 in 10.0 mi SSE 15.0 mph 19.6 mph N/A   Clear
4:35 PM 84.2 °F 83.8 °F 59.0 °F 42% 30.02 in 10.0 mi South 16.1 mph 20.7 mph N/A   Clear
4:55 PM 84.2 °F 84.4 °F 60.8 °F 45% 30.02 in 10.0 mi SSE 15.0 mph 20.7 mph N/A   Clear
5:15 PM 84.2 °F 85.0 °F 62.6 °F 48% 30.01 in 10.0 mi South 13.8 mph 19.6 mph N/A   Clear
5:35 PM 82.4 °F 83.9 °F 64.4 °F 54% 30.00 in 10.0 mi South 12.7 mph - N/A   Clear
5:55 PM 82.4 °F 83.4 °F 62.6 °F 51% 30.00 in 10.0 mi South 12.7 mph - N/A   Clear
6:15 PM 82.4 °F 83.9 °F 64.4 °F 54% 30.00 in 10.0 mi South 12.7 mph 16.1 mph N/A   Clear
6:35 PM 82.4 °F 83.9 °F 64.4 °F 54% 30.00 in 10.0 mi South 10.4 mph - N/A   Clear
6:55 PM 80.6 °F 82.7 °F 66.2 °F 61% 30.00 in 10.0 mi South 8.1 mph - N/A   Clear
7:15 PM 80.6 °F 82.7 °F 66.2 °F 61% 30.00 in 10.0 mi South 6.9 mph - N/A   Clear
7:35 PM 78.8 °F - 66.2 °F 65% 30.00 in 10.0 mi South 5.8 mph - N/A   Clear
7:55 PM 78.8 °F - 66.2 °F 65% 30.00 in 10.0 mi South 8.1 mph - N/A   Clear
8:15 PM 75.2 °F - 66.2 °F 73% 30.00 in 10.0 mi South 6.9 mph - N/A   Clear
8:35 PM 75.2 °F - 66.2 °F 73% 30.00 in 10.0 mi South 6.9 mph - N/A   Clear
8:55 PM 73.4 °F - 66.2 °F 78% 30.01 in 10.0 mi South 5.8 mph - N/A   Clear
9:15 PM 73.4 °F - 66.2 °F 78% 30.01 in 10.0 mi SSE 5.8 mph - N/A   Clear
9:35 PM 73.4 °F - 66.2 °F 78% 30.01 in 10.0 mi SSE 5.8 mph - N/A   Clear
9:55 PM 71.6 °F - 66.2 °F 83% 30.01 in 10.0 mi South 5.8 mph - N/A   Clear
10:15 PM 71.6 °F - 66.2 °F 83% 30.01 in 10.0 mi South 9.2 mph - N/A   Clear
10:35 PM 71.6 °F - 66.2 °F 83% 30.01 in 10.0 mi South 6.9 mph - N/A   Clear
10:55 PM 71.6 °F - 66.2 °F 83% 30.01 in 10.0 mi South 9.2 mph - N/A   Scattered Clouds
11:15 PM 71.6 °F - 66.2 °F 83% 30.01 in 10.0 mi South 6.9 mph - N/A   Scattered Clouds
11:35 PM 71.6 °F - 66.2 °F 83% 30.01 in 10.0 mi South 6.9 mph - N/A   Scattered Clouds
11:55 PM 71.6 °F - 66.2 °F 83% 30.01 in 10.0 mi South 8.1 mph - N/A   Clear